User: anonymous   Login
Location: Valdosta
(30.8330°N, 83.2790°W)
Time: 21:49:27
(UTC-04:00)
Language:

Uribyol 2 - Orbit

View from above orbital plane
View from above orbital plane
View from above satellite
View from above satellite

Ground track
Ground track

The orbit data is extracted from the following two-line orbital elements,

1 22828U 93061F   18172.56255108 +.00000004 +00000-0 +19258-4 0  9995
2 22828 098.8481 147.3626 0008837 294.2972 065.7287 14.30676968258529
Epoch (UTC): 21 June 2018 13:30:04
Eccentricity: 0.0008837
inclination: 98.8481°
perigee height: 783 km
apogee height: 796 km
right ascension of ascending node: 147.3626°
argument of perigee: 294.2972°
revolutions per day: 14.30676968
mean anomaly at epoch: 65.7287°
orbit number at epoch: 25852

The dashed part of the orbit path shows where the satellite is in the earth's shadow,  

DLR